CAPE
0 0 0 0 0 0 0 0 0 0 0 2 0 0 0 46 99 104 81 370 282 149 65 391 652 978 754 549 482 458 366 290 242 38 0 0 0 131 199 299 340 415 411 392 118 27 9 9 8
0 0 0 0 0 0 0 0 0 0 24 1 0 0 7 78 150 47 138 380 292 119 31 291 556 751 717 606 506 501 455 377 68 20 0 0 0 43 196 339 304 472 434 253 57 24 10 8 5
0 0 0 0 0 0 0 0 1 21 24 36 134 103 275 228 177 210 389 465 338 101 18 201 551 653 625 574 532 412 381 316 99 0 0 0 0 6 145 298 299 355 309 144 49 22 9 6 1
0 0 0 0 0 0 0 0 0 0 39 44 119 253 187 385 308 355 660 470 303 134 148 426 696 799 719 581 460 288 305 244 38 1 0 2 3 0 22 208 254 311 245 65 5 8 6 4 0
0 0 0 0 0 0 0 0 0 0 0 101 196 296 343 380 466 406 660 483 303 293 372 499 565 665 677 625 444 358 308 295 137 37 34 14 16 18 27 182 180 230 241 52 11 9 4 1 0
0 0 0 0 0 0 0 0 0 0 0 56 75 147 433 412 640 798 784 607 418 378 402 413 435 357 386 446 361 96 68 141 79 42 151 58 121 111 107 135 178 190 166 47 16 15 2 0 0
0 0 0 0 0 0 0 0 0 0 0 54 181 142 431 610 639 753 817 678 336 273 402 215 118 26 3 2 16 30 30 31 98 184 91 65 124 220 257 306 205 159 111 54 25 30 14 0 0
0 0 0 0 0 0 0 0 0 0 0 304 391 473 444 591 959 823 724 640 308 270 208 69 0 0 0 0 8 11 15 41 57 49 43 27 40 61 63 72 142 240 141 142 93 62 26 0 0
0 0 0 0 0 0 0 0 0 1 4 206 360 517 486 717 1106 813 667 569 358 236 161 61 0 0 0 0 0 1 8 3 0 13 26 26 42 58 33 45 84 147 123 102 86 73 30 9 0
0 0 0 0 0 0 0 0 0 0 3 0 166 93 660 1172 932 818 712 536 325 206 50 6 0 0 0 0 0 6 0 0 11 8 19 51 52 26 17 1 0 40 70 85 92 40 2 0 0
0 0 0 0 0 0 0 2 0 0 0 5 6 7 28 481 774 751 740 564 508 246 39 0 0 0 0 1 0 12 4 2 3 2 2 43 45 12 23 3 5 0 50 31 19 1 0 0 0
0 0 0 0 0 0 0 0 0 0 0 0 0 0 0 3 2 2 2 9 3 190 41 0 0 0 0 2 0 38 26 45 24 16 0 2 30 31 38 22 19 23 45 26 16 1 0 0 2
0 0 0 0 0 0 0 0 0 0 0 0 0 0 0 0 3 4 2 4 9 9 14 8 13 0 1 0 0 12 6 42 55 29 5 0 5 14 17 15 21 23 30 42 41 26 40 22 8
0 0 0 0 0 0 0 0 0 0 0 0 0 0 0 0 0 4 8 10 10 12 4 2 42 41 13 0 0 8 11 4 2 11 16 0 0 5 9 21 14 6 12 26 34 27 23 6 3
0 0 0 0 0 0 0 0 0 0 0 0 0 0 0 0 0 2 13 9 10 3 8 1 7 38 30 33 0 2 0 0 2 3 0 0 0 0 0 3 13 1 0 0 6 3 3 4 5
0 0 0 0 0 0 0 0 0 0 0 0 0 0 0 0 0 0 1 4 0 4 1 9 2 5 9 34 67 45 25 0 0 0 0 0 0 0 0 0 2 0 0 0 0 0 0 0 2
0 0 0 0 0 0 0 0 0 0 0 0 0 0 0 0 0 0 0 0 0 0 0 5 2 2 3 0 2 45 72 29 8 5 0 0 0 0 0 3 3 2 0 0 0 0 0 0 0
0 0 0 0 0 0 0 0 0 0 0 0 0 0 0 0 0 0 0 0 0 0 0 0 0 0 0 2 93 33 59 78 33 8 0 1 0 0 0 0 1 5 3 0 0 0 0 0 0
0 0 0 0 0 0 0 0 0 0 0 0 0 0 0 0 0 0 0 0 0 0 0 0 0 0 0 0 2 40 37 26 71 15 5 5 0 0 0 0 0 0 3 2 0 0 0 0 0
0 0 0 0 0 0 0 0 0 0 0 0 0 0 0 0 0 0 0 0 0 0 0 0 0 0 0 0 0 2 2 37 71 24 0 0 2 0 0 0 0 0 0 0 4 1 0 0 0
0 0 0 0 0 0 0 0 0 0 0 0 0 0 0 0 0 0 0 0 0 0 0 0 0 0 0 0 0 0 0 33 103 66 33 8 0 0 0 0 0 0 0 0 3 4 1 1 0
0 0 0 0 0 0 0 0 0 0 0 0 0 0 0 0 0 0 0 0 0 0 0 0 0 0 0 0 0 0 2 3 16 75 45 13 6 1 0 0 0 0 0 0 0 0 0 0 0
0 0 0 0 0 0 0 0 0 0 0 0 0 0 0 0 0 0 0 0 0 0 0 0 0 0 0 0 0 0 0 0 0 0 38 46 8 0 1 1 0 1 0 0 0 0 0 0 0
0 0 0 0 0 0 0 0 0 0 0 0 0 0 0 0 0 0 0 0 0 0 0 0 0 0 0 0 0 0 0 0 0 0 0 3 15 3 1 0 1 1 1 0 0 0 0 0 0
0 0 0 0 0 0 0 0 0 0 0 0 0 0 0 0 0 0 0 0 0 0 0 0 0 0 0 0 0 0 0 0 0 0 0 0 1 7 2 1 1 0 0 0 0 0 0 0 0
0 0 0 0 0 0 0 0 0 0 0 0 0 0 0 0 0 0 0 0 0 0 0 0 0 0 0 0 0 0 0 0 0 0 0 0 0 0 0 0 0 1 0 1 0 0 0 0 0
0 0 0 0 0 0 0 0 0 0 0 0 0 0 0 0 0 0 0 0 0 0 0 0 0 0 1 1 1 0 0 0 0 0 0 0 0 0 4 0 1 1 0 1 1 0 1 0 0
0 0 0 0 0 0 0 0 0 0 0 0 0 0 0 0 0 0 0 0 0 0 0 0 0 0 0 1 1 3 2 1 2 1 0 0 0 0 0 14 4 2 0 1 1 1 0 1 0
0 0 0 0 0 0 0 0 0 0 0 0 0 0 0 0 0 0 0 0 0 0 0 0 0 0 1 2 2 4 3 3 3 3 1 1 0 0 1 0 0 0 0 0 0 0 1 2 0
0 0 0 0 0 0 0 0 0 0 0 0 0 0 0 0 0 0 0 0 0 0 0 0 0 0 1 0 2 5 2 2 3 2 1 0 0 0 0 0 1 1 2 2 0 1 0 0 0
CIN
0 0 0 0 0 0 0 0 0 0 0 -28 0 0 0 -124 -97 -87 -144 -105 -136 -141 -177 -11 -2 0 0 0 0 0 0 0 0 0 0 0 0 -17 -7 -2 -9 -3 -1 0 -15 -11 0 0 0
0 0 0 0 0 0 0 0 0 0 -29 -7 0 0 -5 -105 -189 -245 -181 -121 -116 -148 -190 -28 -2 0 -1 0 0 0 0 0 0 0 0 0 0 -61 -3 0 -10 -3 -3 0 -18 -18 -46 0 0
0 0 0 0 0 0 0 0 -7 -14 -31 -42 -17 -39 -40 -99 -178 -179 -134 -99 -98 -145 -184 -42 -1 0 0 0 0 0 0 0 0 0 0 0 0 -123 -5 0 -1 -2 0 -18 -12 -27 -48 0 0
0 0 0 0 0 0 0 0 0 -13 -8 -27 -16 -23 -151 -135 -138 -161 -90 -96 -123 -130 -93 -9 -1 0 0 0 0 -1 0 0 0 0 0 0 0 0 -93 0 -1 -1 -4 -54 0 -1 0 0 0
0 0 0 0 0 0 0 0 0 0 0 -16 -13 -24 -122 -153 -150 -158 -127 -102 -109 -92 -68 -4 -2 -1 0 0 0 0 0 0 -8 0 0 0 -6 -14 -97 -1 -9 -9 -2 -6 -33 -11 0 0 0
0 0 0 0 0 0 0 0 0 0 0 -8 -16 -77 -82 -142 -73 -99 -83 -66 -90 -83 -29 -3 -6 -4 -4 -4 -4 -18 -15 -18 -21 0 -1 -3 -4 -20 -35 -3 -6 -10 -18 -5 -37 -33 0 0 0
0 0 0 0 0 0 0 0 0 0 0 -82 -44 -84 -112 -46 -91 -73 -57 -48 -98 -82 -27 -31 -40 -120 -17 -23 -29 -19 -10 -5 -13 -14 -12 -7 -38 -2 -1 -1 -1 -12 -63 -3 -32 -37 -69 0 0
0 0 0 0 0 0 0 0 0 0 0 -9 -52 -41 -42 -33 -48 -52 -52 -51 -90 -74 -64 -105 0 0 0 0 -26 -25 -25 -13 -12 -16 -16 -20 -17 -14 -6 -124 -21 0 -50 -76 -1 -6 -31 -4 0
0 0 0 0 0 0 0 0 0 -32 -82 -13 -29 -16 -32 -8 -4 -23 -27 -56 -62 -72 -79 -114 0 0 0 0 0 -2 -11 -3 0 -27 -28 -30 -24 -13 -19 -11 -40 -30 -91 -2 0 0 -11 -73 0
0 0 0 0 0 0 0 0 0 0 -27 0 -125 -154 -11 -6 -5 -1 -10 -42 -53 -68 -130 -154 -5 0 0 0 0 -15 0 0 -13 -32 -50 -19 -16 -22 -65 -67 0 -9 -7 -6 0 -4 -93 0 0
0 0 0 0 0 0 0 -16 0 0 0 -26 -38 -23 -18 -48 -1 -2 0 -7 -14 -45 -115 -8 0 0 0 -7 0 -43 -164 -16 -7 -10 -5 -18 -38 -42 -49 -82 -55 0 -10 -7 -13 -4 0 0 0
0 0 0 0 0 0 0 0 0 0 0 0 0 0 0 0 0 0 0 0 0 -17 -73 -12 -55 0 0 -18 0 -45 -52 -50 -13 -16 -1 -8 -26 -27 -18 -48 -29 -24 -21 -14 -28 -44 0 -4 -14
0 0 0 0 0 0 0 0 0 0 0 0 0 0 0 0 0 0 0 0 0 0 -18 -56 -79 -14 -68 0 0 -18 -15 -39 -52 -77 -13 0 -29 -31 -29 -36 -15 -20 -24 -44 -35 -38 -22 -15 -15
0 0 0 0 0 0 0 0 0 0 0 0 0 0 0 0 0 0 0 0 0 0 0 0 -23 -45 -46 0 0 -15 -25 -16 -7 -65 -81 0 0 -24 -34 -46 -22 -14 -16 -25 -26 -24 -20 -19 -14
0 0 0 0 0 0 0 0 0 0 0 0 0 0 0 0 0 0 0 0 0 0 0 0 0 -61 -30 -32 0 -13 -1 0 -24 -25 0 0 0 0 0 -8 -18 -19 0 -1 -20 -17 -21 -23 -22
0 0 0 0 0 0 0 0 0 0 0 0 0 0 0 0 0 0 0 0 0 0 0 0 0 0 -18 -31 -27 -35 -23 -2 0 0 -23 0 0 0 0 0 -14 -6 0 0 0 0 0 0 -11
0 0 0 0 0 0 0 0 0 0 0 0 0 0 0 0 0 0 0 0 0 0 0 0 0 0 0 0 0 -19 -16 -19 -27 -32 -5 0 0 0 0 -6 -13 -17 0 0 0 0 0 0 0
0 0 0 0 0 0 0 0 0 0 0 0 0 0 0 0 0 0 0 0 0 0 0 0 0 0 0 0 0 -2 -18 -15 -17 -50 -9 -39 0 0 0 -1 -5 -11 -12 0 0 0 0 0 0
0 0 0 0 0 0 0 0 0 0 0 0 0 0 0 0 0 0 0 0 0 0 0 0 0 0 0 0 0 0 -44 -18 -14 -52 -72 -63 0 0 0 0 0 0 -13 -8 -8 0 0 0 0
0 0 0 0 0 0 0 0 0 0 0 0 0 0 0 0 0 0 0 0 0 0 0 0 0 0 0 0 0 0 0 -39 -6 -43 0 -15 -70 0 0 0 0 0 0 -2 -11 -11 0 0 0
0 0 0 0 0 0 0 0 0 0 0 0 0 0 0 0 0 0 0 0 0 0 0 0 0 0 0 0 0 0 0 -8 -6 -17 -65 -83 -25 0 0 0 0 0 0 0 -16 -14 -7 -3 0
0 0 0 0 0 0 0 0 0 0 0 0 0 0 0 0 0 0 0 0 0 0 0 0 0 0 0 0 0 0 0 0 0 -13 -34 -54 -72 -24 0 0 0 0 0 0 0 0 0 -9 0
0 0 0 0 0 0 0 0 0 0 0 0 0 0 0 0 0 0 0 0 0 0 0 0 0 0 0 0 0 0 0 0 0 0 -10 -53 -79 0 0 0 0 0 0 0 0 0 0 0 0
0 0 0 0 0 0 0 0 0 0 0 0 0 0 0 0 0 0 0 0 0 0 0 0 0 0 0 0 0 0 0 0 0 0 0 -2 -21 -13 0 0 -9 0 0 0 0 0 0 0 0
0 0 0 0 0 0 0 0 0 0 0 0 0 0 0 0 0 0 0 0 0 0 0 0 0 0 0 0 0 0 0 0 0 0 0 0 0 -48 -27 0 0 0 0 0 0 0 0 0 0
0 0 0 0 0 0 0 0 0 0 0 0 0 0 0 0 0 0 0 0 0 0 0 0 0 0 0 0 0 0 0 0 0 0 0 0 0 0 0 0 0 0 0 0 0 0 0 0 0
0 0 0 0 0 0 0 0 0 0 0 0 0 0 0 0 0 0 0 0 0 0 0 0 0 0 0 0 0 0 0 0 0 0 0 0 0 0 -34 -35 -2 0 0 0 0 0 0 0 0
0 0 0 0 0 0 0 0 0 0 0 0 0 0 0 0 0 0 0 0 0 0 0 0 0 0 0 0 0 0 0 0 0 0 0 0 0 0 0 -23 -26 -11 0 0 0 0 0 0 0
0 0 0 0 0 0 0 0 0 0 0 0 0 0 0 0 0 0 0 0 0 0 0 0 0 0 0 0 0 0 0 0 0 0 0 0 0 0 0 0 0 0 0 0 0 0 0 0 0
0 0 0 0 0 0 0 0 0 0 0 0 0 0 0 0 0 0 0 0 0 0 0 0 0 0 0 0 0 0 0 0 0 0 0 0 0 0 0 0 0 0 0 0 0 0 0 0 0
Wind_Speed
18 9 4 2 1 4 8 12 14 2 7 7 9 9 7 12 6 4 6 14 20 16 14 13 14 15 17 18 18 15 14 15 14 13 12 11 10 12 10 9 8 13 19 21 22 21 20 20 19
9 15 4 3 3 5 7 14 11 2 9 7 6 6 5 7 8 7 6 18 17 15 13 12 12 16 17 18 17 16 14 15 14 12 12 10 9 11 11 10 8 16 22 23 22 20 19 18 18
11 9 2 3 4 6 7 8 8 7 7 3 1 1 6 5 8 7 12 16 15 15 12 11 15 16 16 16 16 15 15 15 13 11 9 9 8 10 11 11 9 17 21 21 21 20 19 18 17
5 3 4 4 8 8 8 8 13 10 6 4 5 5 6 6 5 8 13 15 15 13 14 12 15 16 16 15 14 16 15 14 12 10 10 10 9 8 10 10 10 16 20 20 19 19 17 16 16
2 4 3 6 9 10 5 9 10 11 11 4 2 4 6 5 7 11 14 13 13 11 14 13 15 14 14 15 15 13 13 13 12 9 9 7 9 6 10 10 11 16 19 20 18 18 17 15 14
3 1 4 5 9 2 6 11 10 9 12 6 1 8 5 3 7 14 11 9 11 13 12 12 13 12 12 13 13 12 12 12 10 8 9 6 7 6 9 11 11 15 18 19 18 17 17 15 12
3 3 7 10 7 7 10 10 6 8 9 4 10 4 4 7 11 9 8 9 11 8 11 10 9 10 11 10 11 12 11 9 8 9 8 8 10 9 10 10 11 14 17 19 17 17 15 15 11
4 2 6 5 4 6 8 7 6 7 9 7 8 6 2 4 10 9 6 8 9 7 8 12 9 8 6 7 10 9 10 10 10 9 7 9 10 9 10 9 9 12 17 18 17 15 14 15 11
3 3 3 8 7 8 9 7 13 8 5 11 5 9 5 5 9 10 6 7 9 4 5 7 11 9 8 7 7 8 9 10 11 7 8 8 5 5 6 9 10 9 13 16 17 14 13 12 9
4 3 8 7 10 10 13 9 8 10 9 15 20 19 9 5 4 9 6 7 8 7 5 5 8 9 9 8 7 6 7 5 5 6 6 4 5 5 8 8 10 8 10 13 16 15 14 9 3
5 6 8 11 9 9 11 8 9 13 9 11 13 19 20 11 5 6 5 6 5 8 4 5 6 6 9 8 5 3 4 4 5 7 6 6 4 4 5 3 3 4 7 4 7 8 4 5 4
2 7 7 8 7 6 9 11 16 12 9 10 13 14 17 16 15 15 13 16 12 8 7 5 6 4 8 5 5 5 4 4 4 5 5 7 4 4 3 3 4 5 4 6 5 3 4 5 5
8 4 7 4 5 5 8 6 10 13 11 11 13 17 16 15 15 13 13 13 14 14 9 9 6 6 5 6 5 4 5 4 5 4 3 4 5 5 3 3 3 4 4 5 5 5 4 3 5
2 2 5 8 7 4 8 8 7 10 7 11 12 13 13 14 15 13 15 15 14 12 12 17 6 5 4 5 6 3 5 5 5 4 4 3 5 5 3 3 3 4 3 4 4 4 4 4 2
0 4 5 9 8 4 7 6 8 8 5 9 9 9 12 14 13 15 13 11 11 15 17 17 16 5 4 5 5 4 5 5 4 5 6 6 4 6 6 3 2 4 1 3 4 4 4 4 3
5 2 5 8 9 4 5 5 7 8 6 7 9 7 10 12 13 12 12 11 14 10 15 14 13 12 6 5 1 3 2 4 4 4 5 6 5 5 5 4 3 4 3 2 2 3 1 1 3
6 4 5 3 9 8 6 4 7 8 7 7 8 7 8 7 11 8 12 8 9 12 10 11 11 15 10 9 10 4 4 3 4 4 4 7 6 7 5 4 3 3 4 3 3 2 3 3 2
7 6 7 4 7 9 6 5 6 7 7 8 8 8 8 8 8 9 9 11 11 9 6 5 8 11 12 4 7 4 1 2 3 4 3 7 6 7 6 5 5 3 3 2 2 3 2 2 3
6 6 8 7 7 6 3 4 5 6 8 8 8 8 8 9 8 7 8 9 8 9 10 11 10 10 8 7 6 2 4 2 2 4 5 4 4 6 6 5 6 7 6 5 5 3 4 3 2
6 7 8 5 1 4 3 3 5 5 5 6 7 7 8 9 9 11 11 11 11 10 8 8 9 8 7 5 4 3 5 2 2 6 5 5 5 4 3 4 4 5 5 5 6 5 2 3 4
7 6 8 6 10 8 6 7 8 5 6 6 7 6 7 9 9 9 10 11 9 11 10 10 8 8 6 7 6 6 4 4 2 5 6 9 10 9 9 8 5 4 5 5 5 5 6 4 2
3 8 8 7 6 2 2 4 7 8 6 8 7 7 7 8 7 8 10 11 11 10 9 10 9 8 7 7 6 8 5 5 5 3 5 6 11 12 12 10 10 10 5 6 6 7 6 5 5
5 9 6 6 6 6 4 1 4 7 6 8 7 7 7 7 7 8 8 9 10 10 10 10 11 10 8 7 7 6 5 5 6 6 5 7 8 10 10 11 11 11 8 9 9 8 8 7 5
12 6 6 6 2 2 4 3 1 2 4 5 6 6 6 7 8 7 7 8 7 7 9 8 9 9 10 10 9 8 8 7 7 7 5 4 5 6 9 9 9 8 8 8 7 7 10 9 8
12 5 2 3 3 2 2 2 3 6 5 4 4 5 5 5 6 7 8 7 8 8 9 10 11 11 10 9 9 9 9 8 7 5 4 6 6 3 7 9 8 8 9 9 7 7 7 7 8
7 6 3 3 5 5 3 4 1 5 3 1 1 3 5 6 6 6 6 7 7 8 8 9 10 11 12 11 11 8 8 5 6 5 3 4 4 5 6 8 7 7 9 10 10 8 7 8 8
6 5 1 1 2 2 4 3 2 2 4 6 3 1 6 6 6 7 7 6 6 7 7 9 10 11 11 11 10 10 9 8 7 8 8 5 5 5 5 7 7 6 6 6 6 6 7 6 7
2 2 1 2 5 5 4 4 2 3 1 4 2 5 6 6 7 7 7 7 6 6 8 8 9 10 10 11 9 9 10 10 9 8 7 8 7 5 7 5 5 5 5 5 5 4 4 5 4
1 1 2 1 2 1 4 5 2 4 5 4 5 5 5 5 6 6 6 6 7 7 8 9 8 9 9 10 10 10 9 10 9 8 8 8 6 6 4 7 9 8 6 5 4 6 3 3 7
4 3 2 2 2 1 0 9 3 4 2 1 3 2 4 3 4 5 6 6 7 7 8 8 8 10 10 10 10 9 9 9 9 8 9 8 9 9 9 10 10 9 7 8 7 8 8 9 10
Wind_Direction
309 296 260 229 237 212 261 261 263 11 308 35 17 15 31 42 23 101 133 113 128 133 141 144 149 147 144 139 139 137 136 130 125 121 116 106 100 90 85 68 79 135 117 116 109 109 105 106 103
306 288 236 264 195 244 266 226 251 141 67 42 16 328 301 83 71 129 65 128 133 133 145 141 133 134 137 138 139 139 138 131 127 119 115 109 106 94 82 74 84 120 121 113 112 110 110 108 107
259 262 265 196 207 242 275 10 10 86 89 18 23 324 6 65 88 136 124 138 133 132 148 135 131 135 134 134 137 138 136 129 127 125 119 116 116 106 88 81 103 117 115 112 112 112 112 112 113
316 200 272 277 249 239 243 7 355 350 107 121 280 130 82 8 119 104 126 128 129 145 129 129 132 137 137 135 135 138 135 128 129 127 126 120 117 110 95 88 116 122 117 115 116 114 116 116 115
240 268 262 220 256 267 26 29 11 327 308 90 358 159 95 48 80 126 125 123 134 119 125 135 136 135 135 136 136 134 130 127 128 127 124 122 120 105 108 97 113 127 119 119 119 119 118 116 117
281 282 287 256 248 220 52 14 13 324 304 354 28 337 64 292 125 110 130 127 117 121 133 135 128 128 130 138 139 128 115 118 117 122 120 127 133 112 118 106 109 130 125 124 123 121 120 118 118
256 292 273 300 325 347 40 9 341 303 300 6 350 20 99 45 84 106 121 111 111 120 127 130 132 129 124 125 120 115 121 119 114 107 108 110 105 97 107 105 109 138 132 128 128 125 123 122 124
298 302 279 283 21 56 41 331 66 320 309 81 7 5 82 82 94 94 92 115 122 129 141 143 142 142 128 127 115 116 121 111 104 102 113 123 117 108 110 103 101 128 137 133 126 127 128 127 127
278 285 285 23 19 356 10 334 12 325 273 45 31 41 15 148 114 111 119 106 121 153 140 154 148 157 149 133 140 129 123 118 115 112 129 134 121 116 105 97 94 108 141 135 128 129 123 114 123
6 347 37 18 27 4 330 357 11 346 15 20 1 353 2 122 146 130 154 144 152 152 158 143 161 165 150 154 147 154 137 145 147 137 163 141 130 105 100 93 89 90 135 135 132 128 126 126 144
27 28 6 46 11 340 305 41 47 14 39 33 9 15 8 4 290 156 152 127 156 156 165 142 157 149 161 141 158 145 153 160 149 153 176 136 119 125 117 125 125 118 124 124 118 126 151 163 164
129 38 9 15 335 317 328 320 64 41 78 42 37 34 24 19 30 16 27 12 5 180 176 172 176 189 165 148 148 154 146 152 137 166 153 130 134 134 142 157 154 139 142 142 140 146 187 204 173
64 51 43 356 347 308 334 344 86 32 72 59 45 44 34 28 26 28 30 22 16 12 330 182 175 199 187 138 146 151 139 141 135 139 121 126 128 131 126 84 133 135 127 146 162 173 184 154 226
53 357 40 20 14 58 341 44 22 8 49 73 40 46 47 35 28 23 21 23 1 28 357 360 242 181 225 157 156 181 145 155 134 137 143 137 123 122 135 118 148 114 136 158 163 167 160 167 149
102 284 197 36 352 29 317 81 28 337 6 62 66 47 34 33 30 29 25 25 22 2 11 26 344 231 219 173 186 168 145 145 133 146 156 149 126 144 153 154 93 133 120 100 128 148 153 164 160
232 231 7 60 15 358 329 84 29 342 354 65 76 53 44 35 22 29 25 25 35 10 25 350 5 16 26 355 266 190 152 146 149 144 144 151 162 152 135 161 174 141 117 113 108 122 102 159 164
41 356 11 83 38 338 7 59 31 1 11 44 48 51 68 50 34 25 41 351 40 33 27 347 25 4 8 1 326 256 190 173 151 146 148 159 175 159 155 170 172 166 146 179 177 159 160 181 212
335 344 341 34 25 334 13 79 59 7 23 29 46 35 33 52 53 38 30 28 10 52 24 351 41 15 356 319 224 50 341 308 143 152 173 167 177 166 166 155 173 173 150 188 198 160 188 167 191
311 329 310 357 18 309 57 65 53 61 24 22 34 35 22 26 37 46 41 40 17 24 11 11 18 20 8 353 351 91 237 184 161 188 185 198 179 168 178 162 181 163 180 188 189 185 180 220 86
340 360 351 311 344 304 291 193 121 82 92 52 33 35 29 20 14 18 24 30 27 18 5 6 23 23 7 5 337 292 298 255 203 167 174 202 190 183 159 163 184 185 176 190 193 171 189 186 160
90 17 330 304 311 244 279 256 166 144 122 89 54 39 37 25 4 9 16 20 21 18 2 356 5 17 14 354 338 330 279 240 145 199 180 199 192 184 188 191 188 211 179 187 190 174 179 199 182
324 4 313 308 330 17 36 303 176 152 150 91 58 33 29 16 17 18 15 8 10 14 4 358 355 8 4 354 345 352 341 321 360 262 196 188 199 191 199 199 203 207 204 204 198 193 190 168 190
308 330 314 313 303 327 169 67 94 138 193 81 63 46 29 12 14 19 23 10 7 8 8 0 353 351 357 355 348 340 329 327 316 329 260 192 192 198 203 208 206 207 206 212 211 193 201 208 198
287 287 222 282 292 10 36 39 144 100 24 48 52 54 44 8 11 14 22 11 14 5 8 355 358 348 351 347 340 334 331 329 333 332 318 312 200 201 209 206 211 208 210 207 203 202 200 208 212
347 330 338 343 355 199 84 346 305 120 82 53 23 20 9 31 22 1 1 14 5 0 10 354 355 347 347 341 337 335 323 318 305 310 315 316 332 209 204 204 204 204 204 213 213 207 210 208 208
331 344 94 288 346 306 128 249 171 75 117 307 170 39 40 33 17 7 4 2 15 358 7 357 352 345 342 342 335 324 318 310 302 299 281 286 301 313 209 200 200 208 208 214 212 209 211 211 218
318 44 11 312 125 313 248 90 148 122 259 241 78 344 47 29 14 6 6 6 22 358 4 354 352 349 345 339 333 330 328 320 313 309 306 288 272 266 273 187 195 205 208 219 197 206 211 197 210
300 298 335 304 10 322 309 284 261 219 290 39 32 50 40 26 11 8 4 357 5 1 360 3 356 348 344 341 336 332 327 324 319 310 312 289 277 267 289 194 189 197 208 205 196 196 213 199 208
244 352 297 106 33 246 308 272 342 94 63 7 347 58 42 19 0 2 356 3 359 6 6 355 355 353 350 343 339 338 343 339 334 340 338 338 13 2 16 63 66 62 49 34 89 62 24 61 65
314 324 315 112 243 205 198 275 60 101 78 43 301 339 83 17 5 358 355 9 6 3 358 359 354 355 352 346 347 356 355 358 8 8 9 21 38 45 51 61 65 52 42 49 61 77 70 76 69